Theta_e
322 322 323 323 322 322 322 322 323 324 324 324 325 325 327 329 328 323 317 323 325 334 332 328 324 323 324 319 320 311 302 298 300 299 303 303 303 305 310 313 315 318 315 318 328
321 321 322 323 322 322 322 323 323 324 324 324 324 325 325 327 320 315 325 333 334 334 325 322 318 319 314 316 317 308 300 301 306 304 302 303 302 304 309 311 312 315 321 324 326
321 321 321 321 322 322 322 323 322 322 323 324 324 325 325 323 313 313 328 331 335 333 325 325 320 316 312 315 313 307 302 304 306 305 302 303 301 305 307 307 311 312 316 320 324
320 320 320 320 320 321 321 322 322 322 323 323 323 323 323 318 298 312 328 330 332 329 323 319 315 310 308 307 314 305 309 309 309 311 303 301 303 303 307 308 311 313 319 321 322
319 319 319 319 320 320 321 320 321 321 321 322 323 323 315 307 308 318 328 329 329 324 318 315 310 308 305 309 310 308 309 312 314 311 307 300 300 302 304 308 311 311 319 320 321
318 318 318 318 319 320 320 320 321 321 321 321 322 321 307 300 316 317 325 324 325 321 315 316 310 310 307 309 307 311 312 311 312 310 312 306 299 299 302 307 312 315 317 320 321
315 317 318 318 319 319 319 320 320 320 321 320 320 313 305 302 314 317 324 323 323 321 313 317 316 311 310 307 312 311 303 305 304 307 306 302 298 297 301 309 309 313 315 317 319
315 314 316 317 318 319 319 319 319 320 320 320 319 308 299 310 313 312 317 320 322 320 317 316 316 311 310 310 308 303 303 296 305 308 307 300 296 300 301 307 307 311 313 316 318
313 313 313 317 317 317 318 318 318 319 318 318 306 301 295 311 307 310 314 314 319 317 318 318 316 308 308 301 298 300 290 293 298 306 303 299 295 301 301 304 304 307 311 314 316
312 313 312 312 316 317 316 317 316 315 312 311 308 295 298 297 304 310 312 316 314 314 311 310 308 304 303 297 288 293 293 293 294 301 303 299 300 305 302 298 302 302 308 312 314
311 311 313 312 316 317 314 309 301 299 303 295 296 293 297 302 308 307 311 310 311 309 302 306 299 296 299 301 297 296 296 293 298 300 300 299 301 303 301 299 298 298 301 307 312
310 311 312 311 315 317 310 301 299 298 293 300 299 298 300 302 297 302 311 302 304 299 302 299 295 300 302 300 299 296 295 294 298 300 299 300 299 303 302 301 303 303 301 300 306
309 310 311 311 315 313 305 302 303 303 291 295 300 299 298 300 295 298 305 302 299 298 298 296 297 302 300 299 297 296 294 294 295 295 297 295 295 298 301 300 301 302 305 304 302
309 310 310 312 303 308 302 304 304 300 284 288 294 297 299 298 291 302 305 300 296 294 297 296 300 299 298 297 298 293 299 298 295 294 290 298 286 294 299 300 301 303 302 304 303
309 309 310 311 302 302 305 304 301 297 272 287 292 302 298 292 293 297 303 299 292 293 297 294 295 296 295 296 300 294 299 299 298 294 292 291 288 293 296 296 300 303 303 305 306
308 309 310 307 305 307 307 304 298 281 271 283 291 292 291 291 291 298 299 299 298 293 295 293 296 294 297 300 300 300 298 297 296 294 286 292 290 291 294 296 300 304 306 307 305
308 308 307 305 300 309 305 298 281 275 280 281 285 290 289 288 290 292 291 291 286 282 283 289 291 296 297 296 300 298 294 286 284 283 284 292 288 293 294 297 301 303 306 308 305
307 308 306 305 308 306 301 288 276 276 275 284 285 288 285 288 288 287 288 286 290 287 281 280 278 291 295 294 295 294 294 285 280 279 284 287 286 292 299 302 299 301 305 302 301
307 303 301 304 308 305 291 280 277 278 278 282 285 283 283 286 285 286 284 284 288 288 280 281 280 291 295 297 297 294 290 296 283 275 278 283 288 293 295 295 297 301 297 298 300
299 297 297 306 306 300 286 283 281 282 286 285 279 283 279 283 281 283 282 286 284 290 289 285 278 290 293 298 299 296 298 289 288 280 278 281 286 288 291 296 297 297 299 301 301
297 290 298 306 304 291 282 281 281 284 287 283 280 280 281 281 282 281 281 284 287 288 290 286 283 283 292 291 291 292 292 293 292 287 282 281 285 290 294 295 298 301 302 302 304
294 284 299 304 286 286 284 280 285 283 284 284 284 283 281 282 282 280 279 281 288 290 285 287 284 277 281 289 292 291 285 292 287 285 287 286 287 291 296 298 300 301 303 304 301
287 285 301 300 282 283 283 282 284 284 283 283 282 285 285 282 279 281 282 288 288 289 286 288 282 270 274 281 288 286 288 287 294 291 286 284 286 292 291 293 295 296 297 297 296
288 283 288 293 287 284 281 282 280 284 283 284 283 285 284 282 282 282 283 288 289 289 294 292 283 277 274 277 287 285 289 290 287 288 288 288 291 293 290 290 292 293 294 294 294
287 283 284 282 284 284 284 283 280 280 282 283 282 284 282 280 280 280 284 284 286 292 290 289 282 282 284 285 286 286 287 288 286 289 288 291 290 295 297 295 292 293 293 292 293
285 283 286 284 285 284 284 281 281 280 282 280 281 281 281 280 282 279 281 280 281 283 287 290 277 283 282 286 286 283 285 286 287 287 287 290 292 300 301 296 295 297 293 292 293
287 285 285 285 284 283 274 281 282 283 283 283 283 282 281 281 283 284 284 284 283 282 281 281 276 271 273 280 280 277 281 284 286 290 288 284 294 300 299 298 297 297 294 296 297
Wind_Speed
21 21 19 19 18 17 15 16 13 11 9 7 3 2 4 4 0 0 8 6 3 3 3 5 5 2 5 3 2 3 2 2 3 5 5 3 4 2 0 4 2 5 3 2 12
23 22 22 19 20 18 16 15 14 11 9 7 5 2 3 4 4 12 5 8 7 3 3 5 6 5 4 1 1 5 0 5 1 1 3 2 5 5 4 3 4 3 2 4 15
24 24 23 22 20 19 17 14 12 11 9 7 5 3 3 3 2 6 18 18 10 8 2 1 5 6 4 1 1 3 6 2 4 2 2 4 3 6 5 4 8 11 8 12 13
26 25 24 23 22 21 19 16 13 12 11 9 7 4 4 2 9 2 9 23 14 7 6 6 4 6 5 6 3 5 5 4 5 8 6 5 4 5 7 7 2 8 11 15 18
28 27 25 24 23 22 20 19 15 13 12 10 8 6 5 5 9 4 8 17 7 9 8 7 6 5 7 7 6 5 4 5 5 3 5 4 8 7 9 9 4 5 11 17 17
31 27 26 24 24 23 21 20 17 14 13 13 10 7 3 16 2 3 7 7 7 10 6 7 8 5 4 6 6 9 7 5 2 4 4 3 6 3 7 5 3 6 10 12 16
14 21 26 26 24 24 23 21 18 15 14 14 12 4 8 11 1 4 5 5 5 8 7 5 5 8 8 4 4 6 4 6 7 6 3 3 8 9 8 3 6 8 6 7 10
16 15 22 27 26 24 22 21 19 16 15 14 11 3 9 3 1 1 2 4 4 5 3 2 2 5 3 4 4 4 2 6 4 11 2 5 12 7 6 6 9 8 7 8 11
18 17 15 27 28 25 24 21 20 17 16 12 5 5 7 4 6 4 2 6 6 3 5 4 1 3 2 6 3 5 5 6 3 4 8 6 10 7 4 7 8 8 8 9 9
20 18 20 15 28 27 25 21 18 14 7 5 2 3 5 7 6 7 2 5 5 7 4 4 4 6 4 7 15 7 7 4 6 2 7 8 17 17 6 5 10 8 7 8 10
20 20 20 23 27 30 23 15 10 5 12 8 10 2 1 3 4 4 6 5 3 4 12 7 9 18 26 15 3 7 5 7 4 5 4 9 18 16 7 6 9 10 10 11 14
21 22 22 24 29 31 21 17 23 10 16 4 7 4 1 2 5 4 9 8 7 14 10 7 17 25 15 9 5 2 5 4 1 4 5 5 17 15 9 8 13 14 12 13 11
23 22 21 22 22 25 24 28 12 12 7 14 3 12 4 2 3 8 12 6 6 12 16 16 19 11 14 12 14 13 10 5 4 2 2 4 18 16 12 10 9 10 13 12 15
24 25 24 20 9 24 23 18 13 6 6 8 9 10 4 5 1 4 6 6 3 11 10 12 17 10 17 16 18 19 13 5 5 6 8 9 14 14 9 17 15 16 14 19 14
27 29 26 26 6 22 28 16 10 5 9 14 9 2 9 8 7 5 2 2 12 6 6 7 7 18 12 26 16 10 7 13 14 7 2 5 5 11 9 15 12 15 18 17 17
28 29 28 19 12 22 22 19 5 9 8 9 12 12 12 8 3 5 7 3 3 2 3 7 6 2 18 10 17 7 5 4 2 10 15 22 14 18 14 9 12 18 20 15 15
27 28 28 14 17 22 19 16 10 11 1 10 15 19 21 11 9 6 13 11 9 14 14 22 12 1 1 12 9 9 16 9 9 8 6 16 10 26 6 9 15 19 22 20 12
27 27 27 17 12 25 18 13 12 9 10 8 14 19 17 14 7 7 14 13 15 4 7 15 11 22 15 12 10 24 15 4 13 6 22 9 15 14 13 19 11 16 17 11 8
27 15 15 17 23 18 18 18 10 18 11 16 19 20 11 9 9 11 10 12 15 11 10 12 13 3 12 13 18 13 21 26 2 2 2 6 13 10 5 6 8 18 8 14 16
15 15 17 18 18 23 19 16 8 8 14 18 11 12 17 23 13 17 14 12 7 20 1 4 2 6 8 3 16 24 11 13 11 10 12 6 19 17 12 20 11 13 19 21 19
13 14 16 21 21 16 19 8 7 7 18 7 8 9 9 18 13 13 13 3 16 13 11 3 5 5 4 10 18 15 15 16 13 15 13 19 19 10 17 15 20 22 22 18 16
16 11 11 21 13 13 19 16 8 9 2 6 9 9 13 16 10 11 12 6 11 17 15 7 1 6 17 8 4 4 4 22 14 15 19 23 25 1 15 23 21 21 24 15 8
15 4 12 18 15 15 9 8 8 11 5 6 5 6 6 15 9 10 11 8 10 16 16 11 7 3 11 4 10 13 16 15 26 8 14 19 24 4 6 7 10 11 10 9 4
9 8 8 15 3 18 20 18 11 3 4 6 7 8 11 11 3 14 9 7 11 15 13 18 4 10 14 12 3 13 18 25 27 20 18 19 27 19 9 11 9 10 9 7 7
1 4 3 12 14 20 19 21 21 9 2 4 4 9 11 7 5 7 11 4 5 3 7 11 7 5 17 16 13 18 14 16 16 24 19 26 26 32 21 12 7 8 5 7 9
5 6 5 8 23 27 19 11 23 6 5 5 10 9 7 9 4 6 8 3 4 3 5 2 6 4 16 14 10 15 18 24 26 25 20 27 27 29 18 8 11 15 6 9 11
0 4 6 17 16 18 7 14 20 11 8 5 15 7 5 5 10 8 7 5 5 5 5 5 3 4 15 10 11 11 19 21 22 28 26 25 26 44 27 18 15 8 10 16 16
Wind_Direction
220 216 218 215 211 215 222 219 216 219 209 236 256 253 266 243 331 206 215 221 167 134 100 120 64 61 43 65 78 132 76 210 221 151 248 139 196 182 120 130 240 192 164 147 136
220 219 213 210 213 212 211 218 210 205 199 210 237 237 262 236 221 239 232 251 215 184 95 144 138 109 74 76 324 92 181 213 245 203 281 236 213 186 174 156 235 242 188 128 153
216 218 216 212 209 207 210 204 209 195 198 195 219 208 225 135 304 233 206 241 233 200 158 169 123 114 100 145 144 175 162 303 293 352 342 293 253 179 156 216 213 206 168 167 166
216 213 216 214 212 204 207 205 195 201 194 190 199 217 206 168 223 161 218 212 211 162 140 139 133 129 135 162 161 139 179 288 323 334 355 310 306 224 203 225 284 214 161 169 181
220 214 209 208 209 205 203 206 200 197 197 188 189 200 127 241 228 340 311 210 177 151 171 159 153 143 161 161 141 183 201 159 279 312 315 293 248 244 239 245 346 143 158 178 188
221 213 210 205 206 204 197 202 196 196 192 195 186 153 164 236 288 322 71 129 164 161 181 162 180 169 151 185 183 188 182 178 240 298 261 253 277 171 262 189 162 174 189 186 190
225 226 210 205 202 204 198 191 194 192 192 190 189 154 223 228 57 33 122 161 158 170 162 194 186 163 136 147 205 128 193 219 206 167 286 7 280 229 245 181 207 211 201 199 201
215 227 233 201 198 200 194 188 185 185 188 186 164 112 233 225 68 337 129 94 157 150 144 101 198 114 151 130 65 140 110 238 174 131 271 152 261 288 234 178 235 223 207 205 211
231 213 220 211 194 192 192 183 177 176 182 164 113 153 238 111 186 195 154 160 154 139 120 135 16 130 155 140 132 204 201 194 270 191 120 118 285 268 205 191 238 245 223 218 222
237 215 213 246 196 187 185 175 167 160 135 77 55 106 232 214 155 147 137 135 147 139 123 160 173 185 186 187 207 188 211 174 191 154 180 165 247 266 270 223 241 248 249 228 227
234 234 210 210 221 183 169 150 137 157 187 183 192 148 84 155 96 151 149 106 138 179 194 178 207 208 210 207 160 161 174 201 170 153 137 217 253 262 232 219 253 241 240 234 232
227 230 224 210 209 181 167 178 182 149 176 224 145 112 144 179 111 139 138 164 182 210 188 197 219 219 215 205 238 268 188 179 259 138 195 192 258 254 252 237 233 235 236 233 239
228 224 223 205 215 179 179 191 155 124 137 209 140 189 168 128 147 186 162 156 189 208 200 211 224 221 212 218 222 234 217 167 168 134 275 36 272 253 254 244 244 239 242 234 222
230 219 218 201 230 171 191 169 171 129 122 171 188 201 140 138 237 188 184 133 214 222 195 234 252 191 215 224 200 233 211 194 152 165 234 180 275 240 223 239 228 235 224 234 223
226 214 208 192 201 188 172 171 157 71 199 158 168 118 155 161 144 198 240 100 191 168 175 218 161 208 206 218 207 229 163 205 224 235 278 204 272 277 182 233 243 243 233 230 221
219 208 202 198 210 174 158 161 104 142 196 166 147 164 156 185 130 122 156 94 76 63 289 227 146 147 227 214 206 147 147 146 148 218 234 226 219 256 231 201 241 249 251 233 210
215 208 200 183 213 168 155 156 166 193 201 156 170 170 178 161 145 174 177 178 163 179 217 241 229 156 232 225 191 187 209 219 236 227 231 204 198 232 255 203 214 233 244 246 208
210 207 203 197 172 155 161 175 186 126 179 177 164 168 175 146 165 167 167 188 207 171 191 209 230 200 199 207 203 211 202 197 199 197 229 148 225 232 228 225 209 231 241 264 229
197 199 195 187 167 168 165 185 161 167 161 148 139 163 171 171 135 176 188 195 191 187 176 189 237 242 178 195 201 204 210 219 19 57 350 178 268 275 205 254 257 245 250 252 253
187 191 195 176 170 166 177 176 151 152 126 143 136 174 175 179 162 183 174 198 199 205 320 197 315 206 220 158 215 216 193 201 216 204 229 234 241 236 201 217 227 240 242 244 244
173 187 182 158 171 178 184 154 126 185 135 141 128 123 169 178 171 185 193 227 197 184 176 155 139 228 100 200 214 212 231 215 220 209 235 247 250 194 210 208 218 225 240 247 240
169 189 178 162 177 179 173 142 126 147 96 104 99 98 151 152 163 188 206 217 174 152 188 195 100 251 239 215 192 243 237 254 209 207 225 230 244 171 214 198 209 217 226 242 245
163 121 182 171 178 167 125 126 102 155 139 130 120 137 141 159 158 193 185 217 163 170 168 157 211 330 322 254 221 233 246 257 254 216 217 220 249 194 211 202 225 230 240 256 237
152 145 174 174 143 138 130 145 117 53 67 87 108 107 107 159 59 181 177 218 177 187 166 168 165 187 221 229 344 220 237 249 246 228 218 215 246 217 214 203 213 230 237 252 221
54 94 63 157 164 136 126 162 138 138 68 118 53 152 137 141 171 173 178 158 86 164 174 172 224 221 256 275 294 268 255 256 273 256 240 227 229 248 237 229 221 237 246 216 219
109 112 98 99 146 143 130 156 145 108 137 155 139 144 164 143 140 114 116 116 154 123 139 238 264 225 261 260 256 258 287 285 276 254 288 263 268 259 239 224 214 226 229 241 239
189 72 101 141 152 147 159 156 142 124 24 128 139 113 71 97 108 103 92 111 110 116 151 178 145 94 265 268 277 266 242 253 255 249 235 258 243 258 260 253 239 221 212 237 248